Location: Izdebnik
(49.8699°N, 19.7619°E)
Time: 10:54:57
(UTC+01:00)

ISS - Pass Details

Date: 27 January 2019
Orbit: 403 x 411 km, 51.6° (Epoch: 22 February)

Event Time Altitude Azimuth Distance (km) Brightness Sun altitude
Rises 18:21:32 0° 251° (WSW) 2,331 1.6 -18.4°
Reaches altitude 10° 18:23:37 10° 251° (WSW) 1,473 0.2 -18.7°
Maximum altitude 18:26:55 88° 162° (SSE) 416 -3.9 -19.2°
Enters shadow 18:27:05 80° 84° (E) 422 -4.0 -19.3°
